Location: Ferintosh
(52.7647°N, 112.9692°W)
Time: 18:29:14
(UTC+00:00)

A-11 Canister half - Pass Details

Date: 28 May 2024
Orbit: 1515 x 1685 km, 47.2° (Epoch: 12 June)

Event Time Altitude Azimuth Distance (km) Brightness Sun altitude
Rises 12:52:23 0° 279° (W) 4,726 11.0 11.7°
Reaches altitude 10° 12:55:35 10° 274° (W) 3,723 10.5 12.2°
Maximum altitude 13:04:24 49° 204° (SSW) 1,890 9.4 13.4°
Drops below altitude 10° 13:13:06 10° 133° (SE) 3,670 11.5 14.7°
Sets 13:16:14 0° 128° (SE) 4,655 12.1 15.1°
